Pineville, WV

11:59 PM EDT on April 23, 2017 (GMT -0400)
Pineville

Weather History for KI16 - March, 2013

Change the Weather History Date:

Tuesday, March 5, 2013

  Actual Average (KBKW) Record (KBKW)
Temperature  
Mean Temperature 42 °F -  
Max Temperature 50 °F 51 °F 74 °F (1961)
Min Temperature 33 °F 30 °F 0 °F (1978)
Degree Days  
Heating Degree Days 24    
Moisture  
Dew Point 38 °F    
Average Humidity 93    
Maximum Humidity 100    
Minimum Humidity 66    
Precipitation  
Precipitation 0.00 in - - ()
Sea Level Pressure  
Sea Level Pressure 29.86 in    
Wind  
Wind Speed - (North)    
Max Wind Speed -    
Max Gust Speed -    
Visibility 8 miles    
Events Rain , Snow    
Averages and records for this station are not official NWS values.
T = Trace of Precipitation, MM = Missing Value Source: NWS Daily Summary

Daily Weather History Graph

Daily Weather History Graph

Search for Another Location

Airport or City:

Trip Planner

Search our weather history database for the weather conditions in past years. The results will help you decide how hot, cold, wet, or windy it might be!

Date:

Astronomy

Mar. 05, 2013 Rise Set
Actual Time 6:51 AM EST 6:24 PM EST
Civil Twilight 6:25 AM EST 6:50 PM EST
Nautical Twilight 5:55 AM EST 7:20 PM EST
Astronomical Twilight 5:24 AM EST 7:51 PM EST
Moon 1:57 AM EST (3/5) 12:07 PM EST (3/5)
Length of Visible Light 12h 24m
Length of Day
11h 32m
Last Quarter, 41% of the Moon is Illuminated
Mar 5
Last Quarter
Mar 11
New
Mar 19
First Quarter
Mar 27
Full
Apr 3
Last Quarter

Hourly Weather History & Observations

Time (EST) Temp. Dew Point Humidity Pressure Visibility Wind Dir Wind Speed Gust Speed Precip Events Conditions
12:15 AM 33.8 °F 32.2 °F 94% 30.07 in 10.0 mi North - - N/A   Overcast
12:35 AM 33.8 °F 30.0 °F 86% 30.06 in 10.0 mi North - - N/A   Overcast
12:55 AM 33.8 °F 30.4 °F 87% 30.06 in 10.0 mi North - - N/A   Overcast
1:15 AM 33.8 °F 31.6 °F 92% 30.07 in 10.0 mi North - - N/A   Overcast
1:35 AM 33.8 °F 32.0 °F 93% 30.08 in 10.0 mi North - - N/A   Overcast
1:55 AM 34.3 °F 32.7 °F 94% 30.08 in 5.0 mi North - - N/A   Overcast
2:15 AM 34.0 °F 33.3 °F 97% 30.07 in 5.0 mi North - - N/A   Overcast
2:35 AM 34.2 °F 33.4 °F 97% 30.05 in 10.0 mi North - - N/A   Overcast
2:55 AM 34.0 °F 33.1 °F 96% 30.06 in 10.0 mi North - - N/A   Overcast
3:15 AM 34.0 °F 33.4 °F 98% 30.04 in 10.0 mi North - - N/A   Overcast
3:35 AM 34.5 °F 34.0 °F 98% 30.03 in 10.0 mi North - - N/A   Overcast
3:55 AM 34.3 °F 34.0 °F 99% 30.04 in 10.0 mi North - - N/A   Overcast
4:15 AM 34.0 °F 33.8 °F 99% 30.03 in 10.0 mi North - - N/A   Overcast
4:35 AM 34.0 °F 33.8 °F 99% 30.03 in 10.0 mi North - - N/A   Overcast
4:55 AM 34.2 °F 34.0 °F 99% 30.03 in 10.0 mi North - - N/A   Overcast
5:15 AM 34.7 °F 34.5 °F 99% 30.02 in 10.0 mi North - - N/A   Overcast
5:35 AM 34.3 °F 34.0 °F 99% 30.01 in 10.0 mi North - - N/A   Overcast
5:55 AM 34.2 °F 34.0 °F 99% 30.01 in 10.0 mi North - - N/A   Overcast
6:15 AM 34.2 °F 34.2 °F 100% 30.01 in 10.0 mi North - - N/A   Overcast
6:35 AM 34.3 °F 34.3 °F 100% 30.01 in 10.0 mi North - - N/A   Overcast
6:55 AM 34.7 °F 34.7 °F 100% 30.01 in 10.0 mi North - - N/A   Overcast
7:15 AM 34.3 °F 34.3 °F 100% 30.00 in 10.0 mi North - - N/A   Overcast
7:35 AM 34.7 °F 34.7 °F 100% 30.00 in 10.0 mi North - - N/A   Overcast
8:15 AM 35.8 °F 35.8 °F 100% 29.98 in 10.0 mi North - - N/A   Overcast
8:35 AM 35.8 °F 35.6 °F 99% 29.99 in 10.0 mi North - - N/A   Overcast
8:55 AM 36.0 °F 35.8 °F 99% 29.98 in 10.0 mi North - - N/A   Overcast
9:15 AM 36.5 °F 36.5 °F 100% 29.97 in 10.0 mi North - - N/A   Overcast
9:35 AM 37.8 °F 37.6 °F 99% 29.96 in 10.0 mi North - - N/A   Overcast
9:55 AM 38.5 °F 38.1 °F 99% 29.96 in 10.0 mi North - - N/A   Overcast
10:15 AM 38.7 °F 38.1 °F 98% 29.95 in 10.0 mi North - - N/A   Overcast
10:35 AM 39.4 °F 38.7 °F 97% 29.95 in 10.0 mi North - - N/A   Overcast
10:55 AM 40.5 °F 39.6 °F 97% 29.95 in 7.0 mi North - - N/A   Overcast
11:15 AM 43.0 °F 41.0 °F 93% 29.94 in 10.0 mi North - - N/A Rain Light Rain
11:35 AM 43.9 °F 41.2 °F 90% 29.92 in 10.0 mi North - - N/A   Overcast
11:55 AM 46.6 °F 42.1 °F 84% 29.91 in 10.0 mi North - - N/A   Overcast
12:15 PM 47.8 °F 41.9 °F 80% 29.89 in 10.0 mi North - - N/A   Overcast
12:35 PM 48.2 °F 41.7 °F 78% 29.89 in 10.0 mi North - - N/A   Overcast
12:55 PM 49.1 °F 41.5 °F 75% 29.86 in 10.0 mi North - - N/A   Overcast
1:15 PM 50.0 °F 41.4 °F 72% 29.84 in 10.0 mi North - - N/A   Overcast
1:35 PM 49.5 °F 39.7 °F 69% 29.83 in 10.0 mi North - - N/A   Overcast
1:55 PM 49.3 °F 39.0 °F 68% 29.82 in 10.0 mi North - - N/A   Overcast
2:15 PM 49.1 °F 38.1 °F 66% 29.81 in 10.0 mi North - - N/A   Overcast
2:35 PM 48.6 °F 37.8 °F 66% 29.81 in 10.0 mi North - - N/A Rain Rain
2:55 PM 46.9 °F 39.9 °F 77% 29.80 in 7.0 mi North - - N/A Rain Light Rain
3:15 PM 45.5 °F 40.1 °F 81% 29.79 in 4.0 mi North - - N/A Rain Light Rain
3:35 PM 44.4 °F 40.8 °F 87% 29.79 in 5.0 mi North - - N/A Rain Light Rain
3:55 PM 43.7 °F 41.0 °F 90% 29.76 in 5.0 mi North - - N/A Rain Light Rain
4:15 PM 43.3 °F 41.2 °F 92% 29.74 in 3.0 mi North - - N/A   Overcast
4:35 PM 43.0 °F 41.7 °F 95% 29.72 in 2.5 mi North - - N/A   Overcast
4:55 PM 43.2 °F 41.9 °F 95% 29.71 in 10.0 mi North - - N/A   Overcast
5:15 PM 43.0 °F 41.9 °F 96% 29.68 in 1.5 mi North - - N/A   Unknown
5:35 PM 42.8 °F 41.9 °F 97% 29.68 in 3.0 mi North - - N/A   Unknown
6:15 PM 42.3 °F 41.4 °F 97% 29.67 in 3.0 mi North - - N/A   Unknown
6:35 PM 42.3 °F 41.4 °F 97% 29.67 in 2.0 mi North - - N/A   Unknown
6:55 PM 42.3 °F 41.7 °F 98% 29.65 in 3.0 mi North - - N/A   Unknown
7:15 PM 42.4 °F 41.7 °F 97% 29.64 in 5.0 mi North - - N/A   Overcast
7:35 PM 42.3 °F 41.5 °F 97% 29.63 in 4.0 mi North - - N/A   Unknown
7:55 PM 42.3 °F 41.4 °F 97% 29.62 in 5.0 mi North - - N/A   Overcast
8:15 PM 42.3 °F 41.4 °F 97% 29.61 in 10.0 mi North - - N/A   Overcast
8:35 PM 42.3 °F 41.0 °F 95% 29.60 in 7.0 mi North - - N/A   Overcast
8:55 PM 42.1 °F 41.0 °F 96% 29.60 in 7.0 mi North - - N/A   Overcast
9:15 PM 41.7 °F 40.5 °F 95% 29.60 in 3.0 mi North - - N/A   Unknown
9:35 PM 41.0 °F 40.5 °F 98% 29.60 in 2.5 mi North - - N/A   Unknown
9:55 PM 41.5 °F 41.2 °F 99% 29.61 in 2.5 mi North - - N/A   Unknown
10:15 PM 42.4 °F 42.1 °F 99% 29.63 in 4.0 mi North - - N/A   Unknown
10:35 PM 41.0 °F 39.6 °F 95% 29.67 in 3.0 mi North - - N/A   Unknown
10:55 PM 38.1 °F 36.7 °F 95% 29.69 in 5.0 mi North - - N/A   Overcast
11:15 PM 36.1 °F 34.3 °F 93% 29.71 in 10.0 mi North - - N/A Snow Light Snow
11:35 PM 35.4 °F 33.1 °F 91% 29.71 in 10.0 mi North - - N/A   Overcast
11:55 PM 34.7 °F 32.9 °F 93% 29.71 in 4.0 mi North - - N/A Snow Light Snow